{"data":{"norad_id":57907,"epoch":"2026-05-24T16:26:58.648992Z","epoch_age_seconds":112480,"freshness":"FRESH","line1":"1 57907U 23146S   26144.68540103  .00002321  00000+0  93825-4 0  9996","line2":"2 57907  43.0059 245.4641 0002312 286.4208  73.6389 15.27584791147620","mean_motion":15.27584791,"eccentricity":0.0002312,"inclination_deg":43.0059,"raan_deg":245.4641,"arg_perigee_deg":286.4208,"mean_anomaly_deg":73.6389,"bstar":9.3825e-5,"rev_number":14762,"period_min":94.266453062637,"perigee_km":481.44844719097,"apogee_km":484.62105300822,"semimajor_km":6861.1717500996,"source":"CELESTRAK","updated_at":"2026-05-25T13:38:18.454950Z"}}